NOAA NWS Hourly Roundups by Site

Regional Weather Roundup for Bismarck, ND

To Select Another Site Choose from List

Select Site:  

848
ASUS43 KBIS 250210
RWRBIS

NWR BROADCAST TEXT
NATIONAL WEATHER SERVICE BISMARCK ND
900 PM CDT SAT AUG 24 2019

NOTE: "FAIR" INDICATES FEW OR NO CLOUDS BELOW 12,000 FEET WITH NO
SIGNIFICANT WEATHER AND/OR OBSTRUCTIONS TO VISIBILITY.


CITY           SKY/WX    TMP DP  RH WIND       PRES   REMARKS
WILLISTON      CLOUDY    79  64  60 S3        29.70F
MINOT          CLEAR     75  65  70 SE12G21   29.77R
MINOT AFB      MOCLDY    75  66  73 SW10      29.75R THUNDER
BISMARCK       PTCLDY    71  62  73 S16       29.83S
DICKINSON      LGT RAIN  72  62  71 SW17G25   29.78R
GARRISON         N/A     73  66  78 S16       29.77S
HETTINGER ARPT MOCLDY    71  63  75 SE10      29.82F
JAMESTOWN      CLEAR     72  62  71 S16G25    29.91S
CARRINGTON     FAIR      72  63  73 S16G25    29.90S
HAZEN          FAIR      73  68  83 S20G26    29.78S
MANDAN         FAIR      70  64  83 S18       29.84S
OAKES          MOCLDY    70  64  83 SE13      29.96R
RUGBY          MOCLDY    73  64  73 S15G22    29.81R
STANLEY        MOCLDY    66  63  88 E7        29.77R
TIOGA          FAIR      72  61  68 S12       29.75R
WATFORD CITY   FAIR      75  63  64 CALM      29.71S
$$

CITY           SKY/WX    TMP DP  RH WIND       PRES   REMARKS
GRAND FORKS    MOCLDY    72  57  59 S16       29.93R
GRAND FORKS AF NOT AVBL
DEVILS LAKE    MOCLDY    74  63  68 S20G25    29.87S
FARGO          PTCLDY    71  56  58 SE18G30   29.98S
CANDO          FAIR      73  63  68 S16G23    29.86R
CAVALIER       FAIR      75  61  60 S20G29    29.87S
GRAFTON        FAIR      73  61  64 S21       29.92S
GWINNER        CLEAR     66  64  94 SE9       29.97S
ROLLA          MOCLDY    72  63  73 S15G22    29.83S
WALHALLA       FAIR      75  64  69 S15G24    29.86S
$$

CITY           SKY/WX    TMP DP  RH WIND       PRES   REMARKS
ABERDEEN       MOCLDY    70  60  70 S15       29.95S
MOBRIDGE       MOCLDY    71  61  70 S18G29    29.86F
BUFFALO          N/A     76  58  53 SE9       29.79S
RAPID CITY     MOCLDY    71  60  68 SE8       29.85F
GLASGOW        MOCLDY    76  59  55 S3        29.72R
SIDNEY         CLOUDY    77  64  64 SW5       29.71S
WOLF POINT     CLOUDY    77  56  48 S3        29.72R
GLENDIVE       CLOUDY    77  62  59 W5        29.76R
MILES CITY     PTCLDY    79  51  37 S5        29.76F
BAKER          CLOUDY    77  56  48 SW8       29.81R
$$

CITY           SKY/WX    TMP DP  RH WIND       PRES   REMARKS
BILLINGS       MOCLDY    81  46  29 E5        29.83S
GREAT FALLS    CLOUDY    76  41  28 W10       29.79R
REGINA         PTCLDY    70  64  83 S10       29.66R
ESTEVAN        CLEAR     73  64  73 S5        29.69S
$$




 

View Past Reports for Bismarck, ND.

Products Courtesy of NOAA-NWS
NWS Information Parsing Script by Ken True at Saratoga Weather - Script by SE Lincoln Weather.